| time (UTC) | temp C | wind direction | speed KPH | gust KPH | rain 1hr cm | rain 24hr cm | rain mn cm | humidity % | barometer mb |
| 20260505223027 | 13 | 45 | 9.7 | 12.9 | 0.00 | 0.33 | 0.33 | 92 | 1006.1 |
| 20260505222523 | 13 | 14 | 11.3 | 14.5 | 0.00 | 0.33 | 0.33 | 92 | 1005.6 |
| 20260505222019 | 13 | 22 | 6.4 | 11.3 | 0.00 | 0.33 | 0.33 | 92 | 1006.3 |
| 20260505221517 | 13 | 16 | 8.0 | 17.7 | 0.00 | 0.33 | 0.33 | 92 | 1006.6 |
| 20260505221014 | 13 | 8 | 8.0 | 11.3 | 0.00 | 0.33 | 0.33 | 92 | 1006.8 |
| 20260505220511 | 13 | 354 | 4.8 | 9.7 | 0.00 | 0.33 | 0.33 | 92 | 1006.8 |
| 20260505220009 | 13 | 319 | 11.3 | 16.1 | 0.00 | 0.33 | 0.33 | 92 | 1006.6 |
| 20260505215507 | 14 | 328 | 4.8 | 11.3 | 0.00 | 0.33 | 0.33 | 91 | 1006.3 |
| 20260505215004 | 14 | 53 | 1.6 | 11.3 | 0.00 | 0.33 | 0.33 | 91 | 1006.1 |
| 20260505214502 | 14 | 44 | 9.7 | 14.5 | 0.00 | 0.33 | 0.33 | 91 | 1005.8 |
| 20260505213958 | 14 | 1 | 6.4 | 14.5 | 0.00 | 0.33 | 0.33 | 91 | 1005.8 |
| 20260505213456 | 14 | 20 | 4.8 | 14.5 | 0.00 | 0.33 | 0.33 | 91 | 1005.7 |
| 20260505212952 | 15 | 32 | 6.4 | 12.9 | 0.00 | 0.33 | 0.33 | 91 | 1005.4 |
| 20260505212449 | 15 | 338 | 4.8 | 14.5 | 0.00 | 0.33 | 0.33 | 90 | 1005.6 |
| 20260505211945 | 15 | 307 | 12.9 | 20.9 | 0.00 | 0.33 | 0.33 | 90 | 1005.7 |
| 20260505211443 | 15 | 45 | 6.4 | 16.1 | 0.00 | 0.33 | 0.33 | 90 | 1005.8 |
| 20260505210939 | 15 | 341 | 14.5 | 16.1 | 0.00 | 0.33 | 0.33 | 90 | 1006.0 |
| 20260505210437 | 15 | 60 | 3.2 | 12.9 | 0.00 | 0.33 | 0.33 | 90 | 1005.9 |
| 20260505205933 | 15 | 347 | 1.6 | 9.7 | 0.00 | 0.33 | 0.33 | 90 | 1005.9 |
| 20260505205432 | 16 | 256 | 4.8 | 11.3 | 0.00 | 0.33 | 0.33 | 90 | 1005.8 |
| 20260505204928 | 16 | 333 | 8.0 | 11.3 | 0.00 | 0.33 | 0.33 | 89 | 1005.8 |
| 20260505204426 | 16 | 303 | 4.8 | 27.4 | 0.00 | 0.33 | 0.33 | 88 | 1005.5 |
| 20260505203923 | 17 | 332 | 9.7 | 11.3 | 0.00 | 0.33 | 0.33 | 87 | 1005.4 |
| 20260505203419 | 17 | 45 | 6.4 | 11.3 | 0.00 | 0.33 | 0.33 | 87 | 1005.2 |
| 20260505202916 | 17 | 44 | 1.6 | 8.0 | 0.00 | 0.33 | 0.33 | 89 | 1005.2 |
| 20260505202412 | 17 | 35 | 4.8 | 14.5 | 0.00 | 0.33 | 0.33 | 89 | 1005.3 |
| 20260505201909 | 16 | 65 | 6.4 | 11.3 | 0.00 | 0.33 | 0.33 | 89 | 1005.6 |
| 20260505201406 | 16 | 349 | 6.4 | 11.3 | 0.00 | 0.33 | 0.33 | 89 | 1005.4 |
| 20260505200904 | 16 | 336 | 1.6 | 12.9 | 0.00 | 0.33 | 0.33 | 89 | 1005.4 |
| 20260505200401 | 16 | 4 | 4.8 | 11.3 | 0.00 | 0.33 | 0.33 | 89 | 1005.4 |
| 20260505195856 | 16 | 335 | 6.4 | 16.1 | 0.00 | 0.33 | 0.33 | 89 | 1005.6 |
| 20260505195354 | 16 | 348 | 6.4 | 14.5 | 0.00 | 0.33 | 0.33 | 89 | 1005.6 |
| 20260505194851 | 16 | 315 | 6.4 | 12.9 | 0.00 | 0.33 | 0.33 | 89 | 1005.7 |
| 20260505194348 | 16 | 324 | 1.6 | 11.3 | 0.00 | 0.33 | 0.33 | 89 | 1005.9 |
| 20260505193843 | 17 | 296 | 3.2 | 9.7 | 0.00 | 0.33 | 0.33 | 86 | 1005.7 |
| 20260505193341 | 22 | 293 | 11.3 | 14.5 | 0.00 | 0.33 | 0.33 | 83 | 1005.8 |
| 20260505192838 | 22 | 183 | 4.8 | 8.0 | 0.00 | 0.33 | 0.33 | 84 | 1005.5 |
| 20260505192337 | 22 | 192 | 8.0 | 12.9 | 0.00 | 0.33 | 0.33 | 84 | 1005.4 |
| 20260505191834 | 23 | 168 | 4.8 | 12.9 | 0.00 | 0.33 | 0.33 | 83 | 1005.3 |
| 20260505191333 | 23 | 198 | 8.0 | 14.5 | 0.00 | 0.33 | 0.33 | 82 | 1005.2 |
| 20260505190829 | 23 | 221 | 11.3 | 14.5 | 0.00 | 0.33 | 0.33 | 82 | 1005.2 |
| 20260505190324 | 23 | 188 | 9.7 | 12.9 | 0.00 | 0.33 | 0.33 | 82 | 1004.9 |
| 20260505185820 | 23 | 174 | 9.7 | 12.9 | 0.00 | 0.33 | 0.33 | 83 | 1004.8 |
| 20260505185317 | 23 | 189 | 11.3 | 14.5 | 0.00 | 0.33 | 0.33 | 83 | 1004.6 |
| 20260505184813 | 22 | 220 | 11.3 | 14.5 | 0.00 | 0.33 | 0.33 | 84 | 1004.7 |
| 20260505184310 | 22 | 170 | 14.5 | 16.1 | 0.00 | 0.33 | 0.33 | 83 | 1004.8 |
| 20260505183807 | 22 | 163 | 11.3 | 14.5 | 0.00 | 0.33 | 0.33 | 83 | 1004.9 |
| 20260505183304 | 22 | 190 | 11.3 | 14.5 | 0.00 | 0.33 | 0.33 | 83 | 1005.1 |
| 20260505182801 | 22 | 151 | 6.4 | 9.7 | 0.00 | 0.33 | 0.33 | 83 | 1005.0 |
| 20260505182257 | 22 | 199 | 1.6 | 12.9 | 0.00 | 0.33 | 0.33 | 85 | 1004.9 |
| 20260505181754 | 22 | 120 | 6.4 | 9.7 | 0.00 | 0.33 | 0.33 | 85 | 1005.0 |
| 20260505181251 | 22 | 155 | 8.0 | 14.5 | 0.00 | 0.33 | 0.33 | 85 | 1004.9 |
| 20260505180748 | 22 | 148 | 8.0 | 12.9 | 0.00 | 0.33 | 0.33 | 86 | 1004.9 |
| 20260505180244 | 21 | 180 | 14.5 | 16.1 | 0.00 | 0.33 | 0.33 | 87 | 1005.1 |
| 20260505175741 | 21 | 188 | 11.3 | 24.1 | 0.00 | 0.33 | 0.33 | 86 | 1005.2 |
| 20260505175237 | 21 | 158 | 14.5 | 17.7 | 0.00 | 0.33 | 0.33 | 86 | 1005.2 |
| 20260505174734 | 21 | 131 | 9.7 | 17.7 | 0.00 | 0.33 | 0.33 | 87 | 1005.1 |
| 20260505174231 | 21 | 156 | 12.9 | 17.7 | 0.00 | 0.33 | 0.33 | 86 | 1005.0 |
| 20260505173727 | 21 | 168 | 6.4 | 12.9 | 0.00 | 0.33 | 0.33 | 88 | 1005.1 |
| 20260505173224 | 21 | 183 | 9.7 | 16.1 | 0.00 | 0.33 | 0.33 | 88 | 1005.1 |
| 20260505172721 | 21 | 182 | 11.3 | 16.1 | 0.00 | 0.33 | 0.33 | 88 | 1005.1 |
| 20260505172218 | 21 | 166 | 12.9 | 16.1 | 0.00 | 0.33 | 0.33 | 87 | 1005.2 |
| 20260505171718 | 21 | 176 | 12.9 | 14.5 | 0.00 | 0.33 | 0.33 | 88 | 1005.3 |
| 20260505171215 | 21 | 162 | 16.1 | 24.1 | 0.00 | 0.33 | 0.33 | 87 | 1005.0 |
| 20260505170712 | 20 | 144 | 4.8 | 16.1 | 0.00 | 0.33 | 0.33 | 89 | 1005.1 |
| 20260505170209 | 20 | 151 | 14.5 | 17.7 | 0.00 | 0.33 | 0.33 | 89 | 1005.1 |
| 20260505165704 | 20 | 147 | 14.5 | 17.7 | 0.00 | 0.33 | 0.33 | 89 | 1005.2 |
| 20260505165200 | 20 | 140 | 9.7 | 17.7 | 0.00 | 0.33 | 0.33 | 88 | 1005.3 |
| 20260505164655 | 20 | 164 | 8.0 | 17.7 | 0.00 | 0.33 | 0.33 | 88 | 1005.3 |
| 20260505164153 | 20 | 169 | 12.9 | 17.7 | 0.00 | 0.33 | 0.33 | 88 | 1005.2 |
| 20260505163651 | 20 | 171 | 12.9 | 20.9 | 0.00 | 0.33 | 0.33 | 89 | 1005.3 |
| 20260505163149 | 20 | 157 | 12.9 | 16.1 | 0.00 | 0.33 | 0.33 | 88 | 1005.1 |
| 20260505162646 | 20 | 144 | 11.3 | 17.7 | 0.00 | 0.33 | 0.33 | 88 | 1005.3 |
| 20260505162144 | 20 | 181 | 9.7 | 14.5 | 0.00 | 0.33 | 0.33 | 88 | 1005.3 |
| 20260505161640 | 20 | 132 | 17.7 | 22.5 | 0.00 | 0.33 | 0.33 | 88 | 1005.3 |
| 20260505161138 | 20 | 135 | 14.5 | 22.5 | 0.00 | 0.33 | 0.33 | 88 | 1004.9 |
| 20260505160636 | 20 | 159 | 17.7 | 24.1 | 0.00 | 0.33 | 0.33 | 87 | 1004.9 |
| 20260505160133 | 20 | 186 | 19.3 | 29.0 | 0.00 | 0.33 | 0.33 | 87 | 1004.9 |
| 20260505153112 | 20 | 169 | 11.3 | 29.0 | 0.00 | 0.33 | 0.33 | 87 | 1004.6 |
| 20260505152609 | 20 | 171 | 12.9 | 24.1 | 0.00 | 0.33 | 0.33 | 87 | 1004.4 |
| 20260505152104 | 20 | 168 | 16.1 | 25.7 | 0.00 | 0.33 | 0.33 | 87 | 1004.6 |
| 20260505151600 | 20 | 141 | 16.1 | 20.9 | 0.00 | 0.33 | 0.33 | 88 | 1004.7 |
| 20260505151058 | 20 | 150 | 11.3 | 20.9 | 0.00 | 0.33 | 0.33 | 89 | 1004.8 |
| 20260505150553 | 20 | 184 | 16.1 | 27.4 | 0.00 | 0.33 | 0.33 | 88 | 1004.9 |
| 20260505140519 | 18 | 172 | 3.2 | 8.0 | 0.00 | 0.33 | 0.33 | 90 | 1005.3 |
| 20260505124932 | 17 | 168 | 4.8 | 11.3 | 0.00 | 0.33 | 0.33 | 92 | 1005.6 |
| 20260505124429 | 17 | 138 | 3.2 | 9.7 | 0.00 | 0.33 | 0.33 | 92 | 1005.4 |
| 20260505123925 | 17 | 69 | 1.6 | 11.3 | 0.00 | 0.33 | 0.33 | 92 | 1005.4 |
| 20260505123422 | 17 | 78 | 3.2 | 8.0 | 0.00 | 0.33 | 0.33 | 92 | 1005.1 |
| 20260505122918 | 17 | 65 | 3.2 | 8.0 | 0.00 | 0.33 | 0.33 | 92 | 1005.2 |
| 20260505122416 | 17 | 125 | 0.0 | 9.7 | 0.00 | 0.33 | 0.33 | 92 | 1005.7 |
| 20260505121912 | 17 | 29 | 4.8 | 8.0 | 0.00 | 0.33 | 0.33 | 92 | 1005.5 |
| 20260505121409 | 17 | 73 | 0.0 | 4.8 | 0.00 | 0.33 | 0.33 | 92 | 1005.4 |
| 20260505120905 | 17 | 94 | 1.6 | 8.0 | 0.00 | 0.33 | 0.33 | 92 | 1005.3 |
| 20260505120402 | 17 | 115 | 1.6 | 4.8 | 0.00 | 0.33 | 0.33 | 92 | 1005.1 |
| 20260505115900 | 17 | 26 | 0.0 | 3.2 | 0.00 | 0.33 | 0.33 | 92 | 1005.1 |
| 20260505115357 | 17 | 51 | 3.2 | 8.0 | 0.00 | 0.33 | 0.33 | 92 | 1005.3 |
| 20260505114855 | 17 | 65 | 1.6 | 3.2 | 0.00 | 0.33 | 0.33 | 92 | 1005.2 |
| 20260505114351 | 17 | 19 | 1.6 | 3.2 | 0.00 | 0.33 | 0.33 | 92 | 1005.3 |
| 20260505113848 | 17 | 34 | 0.0 | 3.2 | 0.00 | 0.33 | 0.33 | 92 | 1005.0 |
| 20260505113344 | 17 | 44 | 1.6 | 12.9 | 0.00 | 0.33 | 0.33 | 92 | 1005.0 |
| 20260505112840 | 17 | 42 | 4.8 | 11.3 | 0.00 | 0.33 | 0.33 | 92 | 1004.9 |
| 20260505112338 | 17 | 57 | 1.6 | 14.5 | 0.00 | 0.33 | 0.33 | 93 | 1004.9 |
| 20260505111833 | 17 | 57 | 1.6 | 3.2 | 0.00 | 0.33 | 0.33 | 93 | 1004.8 |
| 20260505111329 | 17 | 106 | 4.8 | 8.0 | 0.00 | 0.33 | 0.33 | 93 | 1004.8 |
| 20260505110825 | 17 | 53 | 3.2 | 4.8 | 0.00 | 0.33 | 0.33 | 94 | 1004.6 |
| 20260505110323 | 17 | 49 | 1.6 | 8.0 | 0.00 | 0.33 | 0.33 | 94 | 1004.6 |
| 20260505101757 | 17 | 79 | 3.2 | 12.9 | 0.00 | 0.33 | 0.33 | 93 | 1004.6 |
| 20260505101253 | 17 | 46 | 8.0 | 11.3 | 0.00 | 0.33 | 0.33 | 93 | 1004.6 |
| 20260505100749 | 17 | 44 | 6.4 | 14.5 | 0.00 | 0.33 | 0.33 | 93 | 1004.6 |
| 20260505100246 | 17 | 45 | 0.0 | 8.0 | 0.00 | 0.33 | 0.33 | 92 | 1004.7 |
| 20260505095741 | 17 | 61 | 9.7 | 16.1 | 0.00 | 0.33 | 0.33 | 92 | 1004.9 |
| 20260505095240 | 17 | 18 | 4.8 | 9.7 | 0.00 | 0.33 | 0.33 | 92 | 1004.9 |
| 20260505094735 | 17 | 42 | 3.2 | 8.0 | 0.00 | 0.33 | 0.33 | 92 | 1004.8 |
| 20260505094232 | 17 | 37 | 1.6 | 3.2 | 0.00 | 0.33 | 0.33 | 92 | 1004.9 |
| 20260505093728 | 17 | 64 | 1.6 | 4.8 | 0.00 | 0.33 | 0.33 | 92 | 1005.1 |
| 20260505093226 | 17 | 52 | 3.2 | 9.7 | 0.00 | 0.33 | 0.33 | 93 | 1004.6 |
| 20260505092722 | 17 | 63 | 1.6 | 4.8 | 0.00 | 0.33 | 0.33 | 93 | 1004.7 |
| 20260505092221 | 17 | 352 | 1.6 | 1.6 | 0.00 | 0.33 | 0.33 | 93 | 1005.0 |
| 20260505091718 | 17 | 357 | 0.0 | 1.6 | 0.00 | 0.33 | 0.33 | 93 | 1005.0 |
| 20260505091216 | 17 | 4 | 1.6 | 1.6 | 0.00 | 0.33 | 0.33 | 92 | 1005.2 |
| 20260505090713 | 17 | 32 | 1.6 | 1.6 | 0.00 | 0.33 | 0.33 | 92 | 1005.1 |
| 20260505090211 | 17 | 43 | 3.2 | 3.2 | 0.00 | 0.33 | 0.33 | 92 | 1004.9 |
| 20260505085708 | 17 | 1 | 0.0 | 3.2 | 0.00 | 0.33 | 0.33 | 92 | 1004.8 |
| 20260505085206 | 17 | 36 | 1.6 | 4.8 | 0.00 | 0.33 | 0.33 | 92 | 1004.9 |
| 20260505084703 | 17 | 107 | 3.2 | 4.8 | 0.00 | 0.33 | 0.33 | 93 | 1005.0 |
| 20260505084203 | 17 | 161 | 3.2 | 4.8 | 0.00 | 0.33 | 0.33 | 93 | 1005.1 |
| 20260505083659 | 17 | 197 | 1.6 | 3.2 | 0.00 | 0.33 | 0.33 | 92 | 1005.1 |
| 20260505083155 | 17 | 158 | 3.2 | 8.0 | 0.00 | 0.33 | 0.33 | 92 | 1005.1 |
| 20260505082651 | 17 | 2 | 1.6 | 3.2 | 0.00 | 0.33 | 0.33 | 92 | 1005.2 |
| 20260505082148 | 17 | 31 | 1.6 | 3.2 | 0.00 | 0.33 | 0.33 | 91 | 1005.2 |
| 20260505081644 | 17 | 8 | 0.0 | 0.0 | 0.00 | 0.33 | 0.33 | 90 | 1005.0 |
| 20260505081142 | 17 | 30 | 3.2 | 9.7 | 0.00 | 0.33 | 0.33 | 89 | 1005.1 |
| 20260505080639 | 17 | 317 | 4.8 | 8.0 | 0.00 | 0.33 | 0.33 | 87 | 1005.1 |
| 20260505080135 | 17 | 161 | 1.6 | 11.3 | 0.00 | 0.33 | 0.33 | 85 | 1004.5 |
| 20260505075631 | 17 | 194 | 8.0 | 11.3 | 0.00 | 0.33 | 0.33 | 85 | 1004.4 |
| 20260505075128 | 17 | 184 | 4.8 | 8.0 | 0.00 | 0.33 | 0.33 | 85 | 1004.3 |
| 20260505074625 | 17 | 238 | 3.2 | 11.3 | 0.00 | 0.33 | 0.33 | 84 | 1003.7 |
| 20260505074122 | 17 | 183 | 9.7 | 14.5 | 0.00 | 0.33 | 0.33 | 84 | 1003.3 |
| 20260505073620 | 17 | 173 | 14.5 | 17.7 | 0.00 | 0.33 | 0.33 | 85 | 1003.2 |
| 20260505073118 | 18 | 169 | 9.7 | 20.9 | 0.00 | 0.33 | 0.33 | 83 | 1003.0 |
| 20260505072613 | 18 | 171 | 14.5 | 24.1 | 0.00 | 0.33 | 0.33 | 83 | 1003.2 |
| 20260505072110 | 18 | 123 | 17.7 | 20.9 | 0.00 | 0.33 | 0.33 | 83 | 1003.2 |
| 20260505071605 | 18 | 174 | 14.5 | 27.4 | 0.00 | 0.33 | 0.33 | 82 | 1003.4 |
| 20260505071103 | 18 | 156 | 19.3 | 25.7 | 0.00 | 0.33 | 0.33 | 83 | 1003.6 |
| 20260505070600 | 18 | 174 | 17.7 | 22.5 | 0.00 | 0.33 | 0.33 | 82 | 1003.6 |
| 20260505070056 | 18 | 145 | 17.7 | 25.7 | 0.00 | 0.33 | 0.33 | 83 | 1004.3 |
| 20260505065552 | 17 | 165 | 17.7 | 32.2 | 0.00 | 0.33 | 0.33 | 88 | 1004.3 |
| 20260505065049 | 17 | 169 | 20.9 | 25.7 | 0.00 | 0.33 | 0.33 | 91 | 1004.4 |
| 20260505064546 | 17 | 171 | 14.5 | 20.9 | 0.48 | 0.33 | 0.33 | 92 | 1004.8 |
| 20260505064045 | 17 | 171 | 14.5 | 22.5 | 0.30 | 0.30 | 0.30 | 93 | 1004.3 |
| 20260505063542 | 17 | 152 | 8.0 | 14.5 | 0.00 | 0.25 | 0.25 | 86 | 1004.6 |
| 20260505063037 | 17 | 162 | 14.5 | 22.5 | 0.00 | 0.25 | 0.25 | 86 | 1004.6 |
| 20260505062534 | 17 | 153 | 19.3 | 22.5 | 0.00 | 0.25 | 0.25 | 87 | 1004.7 |
| 20260505062031 | 17 | 168 | 11.3 | 14.5 | 0.00 | 0.25 | 0.25 | 88 | 1004.8 |
| 20260505061529 | 17 | 168 | 17.7 | 27.4 | 0.00 | 0.25 | 0.25 | 89 | 1004.7 |
| 20260505061027 | 17 | 165 | 14.5 | 25.7 | 0.30 | 0.25 | 0.25 | 89 | 1005.1 |
| 20260505060524 | 17 | 170 | 19.3 | 32.2 | 0.18 | 0.23 | 0.23 | 87 | 1005.2 |
| 20260505060020 | 17 | 186 | 8.0 | 20.9 | 0.00 | 0.20 | 0.20 | 86 | 1005.2 |
| 20260505055516 | 17 | 198 | 11.3 | 12.9 | 0.13 | 0.20 | 0.20 | 86 | 1005.0 |
| 20260505055013 | 17 | 171 | 16.1 | 20.9 | 0.79 | 0.20 | 0.20 | 85 | 1005.1 |
| 20260505054510 | 18 | 180 | 11.3 | 20.9 | 0.97 | 0.18 | 0.18 | 83 | 1004.8 |
| 20260505054008 | 19 | 199 | 22.5 | 40.2 | 0.43 | 0.08 | 0.08 | 77 | 1005.5 |
| 20260505053505 | 20 | 189 | 12.9 | 27.4 | 0.00 | 0.00 | 0.00 | 73 | 1004.7 |
| 20260505053002 | 20 | 170 | 30.6 | 37.0 | 0.00 | 0.00 | 0.00 | 71 | 1004.7 |
| 20260505052459 | 19 | 209 | 20.9 | 33.8 | 0.00 | 0.00 | 0.00 | 74 | 1004.7 |
| 20260505051956 | 19 | 170 | 22.5 | 37.0 | 0.00 | 0.00 | 0.00 | 75 | 1004.6 |
| 20260505051452 | 20 | 156 | 19.3 | 24.1 | 0.00 | 0.00 | 0.00 | 71 | 1004.8 |
| 20260505050951 | 20 | 184 | 12.9 | 16.1 | 0.00 | 0.00 | 0.00 | 71 | 1005.2 |
| 20260505050449 | 20 | 189 | 16.1 | 25.7 | 0.00 | 0.00 | 0.00 | 71 | 1005.1 |
| 20260505041416 | 20 | 172 | 9.7 | 12.9 | 0.00 | 0.00 | 0.00 | 71 | 1006.0 |
| 20260505040913 | 20 | 161 | 8.0 | 16.1 | 0.00 | 0.00 | 0.00 | 70 | 1006.2 |
| 20260505040411 | 20 | 173 | 11.3 | 16.1 | 0.00 | 0.00 | 0.00 | 70 | 1006.3 |
| 20260505035908 | 20 | 173 | 11.3 | 20.9 | 0.00 | 0.00 | 0.00 | 70 | 1006.1 |
| 20260505035404 | 20 | 180 | 9.7 | 16.1 | 0.00 | 0.00 | 0.00 | 70 | 1006.6 |
| 20260505034901 | 19 | 181 | 11.3 | 16.1 | 0.00 | 0.00 | 0.00 | 71 | 1006.5 |
| 20260505034357 | 20 | 172 | 8.0 | 11.3 | 0.00 | 0.00 | 0.00 | 71 | 1006.6 |
| 20260505033855 | 20 | 130 | 11.3 | 17.7 | 0.00 | 0.00 | 0.00 | 71 | 1006.5 |
| 20260505033351 | 20 | 185 | 9.7 | 20.9 | 0.00 | 0.00 | 0.00 | 70 | 1006.5 |
| 20260505032850 | 20 | 187 | 6.4 | 12.9 | 0.00 | 0.00 | 0.00 | 71 | 1006.5 |
| 20260505032346 | 20 | 152 | 12.9 | 20.9 | 0.00 | 0.00 | 0.00 | 70 | 1006.5 |
| 20260505031843 | 19 | 195 | 6.4 | 9.7 | 0.00 | 0.00 | 0.00 | 71 | 1006.7 |
| 20260505031339 | 20 | 200 | 8.0 | 11.3 | 0.00 | 0.00 | 0.00 | 71 | 1006.6 |
| 20260505030837 | 20 | 179 | 6.4 | 16.1 | 0.00 | 0.00 | 0.00 | 71 | 1006.7 |
| 20260505030332 | 20 | 174 | 11.3 | 12.9 | 0.00 | 0.00 | 0.00 | 70 | 1006.7 |
| 20260505025828 | 20 | 181 | 8.0 | 12.9 | 0.00 | 0.00 | 0.00 | 70 | 1006.8 |
| 20260505025326 | 20 | 168 | 4.8 | 11.3 | 0.00 | 0.00 | 0.00 | 70 | 1006.6 |
| 20260505024824 | 20 | 191 | 9.7 | 16.1 | 0.00 | 0.00 | 0.00 | 70 | 1006.4 |
| 20260505024322 | 20 | 177 | 11.3 | 12.9 | 0.00 | 0.00 | 0.00 | 69 | 1006.6 |
| 20260505023819 | 20 | 182 | 9.7 | 16.1 | 0.00 | 0.00 | 0.00 | 70 | 1006.6 |
| 20260505023315 | 20 | 175 | 9.7 | 12.9 | 0.00 | 0.00 | 0.00 | 70 | 1006.6 |
| 20260505022813 | 20 | 170 | 8.0 | 14.5 | 0.00 | 0.00 | 0.00 | 70 | 1006.6 |
| 20260505022310 | 20 | 184 | 8.0 | 9.7 | 0.00 | 0.00 | 0.00 | 71 | 1006.9 |
| 20260505021807 | 20 | 211 | 9.7 | 12.9 | 0.00 | 0.00 | 0.00 | 70 | 1006.7 |
| 20260505021303 | 20 | 195 | 9.7 | 14.5 | 0.00 | 0.00 | 0.00 | 70 | 1006.7 |
| 20260505020759 | 20 | 169 | 8.0 | 14.5 | 0.00 | 0.00 | 0.00 | 70 | 1006.5 |
| 20260505020255 | 20 | 153 | 6.4 | 11.3 | 0.00 | 0.00 | 0.00 | 70 | 1006.6 |
| 20260505015752 | 20 | 175 | 8.0 | 11.3 | 0.00 | 0.00 | 0.00 | 70 | 1006.5 |
| 20260505015249 | 20 | 176 | 4.8 | 11.3 | 0.00 | 0.00 | 0.00 | 70 | 1006.6 |
| 20260505014746 | 20 | 187 | 8.0 | 11.3 | 0.00 | 0.00 | 0.00 | 70 | 1006.4 |
| 20260505014243 | 20 | 182 | 4.8 | 12.9 | 0.00 | 0.00 | 0.00 | 71 | 1006.4 |
| 20260505013739 | 20 | 190 | 4.8 | 11.3 | 0.00 | 0.00 | 0.00 | 71 | 1006.5 |
| 20260505013237 | 20 | 193 | 6.4 | 8.0 | 0.00 | 0.00 | 0.00 | 70 | 1006.4 |
| 20260505012735 | 21 | 189 | 4.8 | 4.8 | 0.00 | 0.00 | 0.00 | 70 | 1006.5 |
| 20260505012232 | 21 | 198 | 9.7 | 9.7 | 0.00 | 0.00 | 0.00 | 69 | 1006.3 |
| 20260505011728 | 21 | 189 | 11.3 | 12.9 | 0.00 | 0.00 | 0.00 | 68 | 1006.0 |
| 20260505011225 | 21 | 182 | 8.0 | 11.3 | 0.00 | 0.00 | 0.00 | 68 | 1006.1 |
| 20260505010721 | 21 | 202 | 4.8 | 8.0 | 0.00 | 0.00 | 0.00 | 68 | 1005.8 |
| 20260505010217 | 21 | 182 | 6.4 | 14.5 | 0.00 | 0.00 | 0.00 | 67 | 1005.9 |
| 20260505005714 | 21 | 190 | 9.7 | 12.9 | 0.00 | 0.00 | 0.00 | 67 | 1005.9 |
| 20260505005211 | 21 | 184 | 9.7 | 16.1 | 0.00 | 0.00 | 0.00 | 66 | 1005.6 |
| 20260505004708 | 21 | 191 | 6.4 | 14.5 | 0.00 | 0.00 | 0.00 | 66 | 1005.5 |
| 20260505004204 | 21 | 190 | 8.0 | 11.3 | 0.00 | 0.00 | 0.00 | 66 | 1005.7 |
| 20260505003702 | 22 | 172 | 16.1 | 17.7 | 0.00 | 0.00 | 0.00 | 66 | 1005.5 |
| 20260505003200 | 22 | 204 | 14.5 | 14.5 | 0.00 | 0.00 | 0.00 | 65 | 1005.6 |
| 20260505002655 | 22 | 195 | 14.5 | 20.9 | 0.00 | 0.00 | 0.00 | 65 | 1005.6 |
| 20260505002153 | 22 | 198 | 11.3 | 22.5 | 0.00 | 0.00 | 0.00 | 64 | 1005.5 |
| 20260505001650 | 22 | 174 | 9.7 | 12.9 | 0.00 | 0.00 | 0.00 | 65 | 1005.7 |
| 20260505001148 | 22 | 167 | 11.3 | 14.5 | 0.00 | 0.00 | 0.00 | 64 | 1005.7 |
| 20260505000644 | 22 | 192 | 8.0 | 14.5 | 0.00 | 0.00 | 0.00 | 65 | 1005.8 |
| 20260505000143 | 22 | 169 | 11.3 | 14.5 | 0.00 | 0.00 | 0.00 | 63 | 1005.8 |
| 20260504235638 | 22 | 176 | 9.7 | 14.5 | 0.00 | 0.00 | 0.00 | 64 | 1006.0 |
| 20260504235135 | 22 | 175 | 8.0 | 11.3 | 0.00 | 0.00 | 0.00 | 64 | 1006.0 |
| 20260504234633 | 22 | 197 | 11.3 | 14.5 | 0.00 | 0.00 | 0.00 | 63 | 1005.7 |
| 20260504234130 | 22 | 184 | 11.3 | 17.7 | 0.00 | 0.00 | 0.00 | 62 | 1005.9 |
| 20260504233625 | 22 | 188 | 8.0 | 17.7 | 0.00 | 0.00 | 0.00 | 63 | 1005.8 |
| 20260504233121 | 23 | 178 | 8.0 | 20.9 | 0.00 | 0.00 | 0.00 | 62 | 1006.0 |
| 20260504232620 | 23 | 170 | 11.3 | 14.5 | 0.00 | 0.00 | 0.00 | 62 | 1005.9 |
| 20260504232116 | 23 | 174 | 11.3 | 12.9 | 0.00 | 0.00 | 0.00 | 62 | 1006.0 |
| 20260504231613 | 23 | 172 | 14.5 | 20.9 | 0.00 | 0.00 | 0.00 | 61 | 1006.1 |
| 20260504231109 | 23 | 182 | 11.3 | 14.5 | 0.00 | 0.00 | 0.00 | 60 | 1006.1 |
| 20260504230605 | 23 | 164 | 9.7 | 16.1 | 0.00 | 0.00 | 0.00 | 62 | 1005.9 |
| 20260504230104 | 23 | 196 | 14.5 | 16.1 | 0.00 | 0.00 | 0.00 | 60 | 1006.2 |
| 20260504225602 | 23 | 177 | 14.5 | 17.7 | 0.00 | 0.00 | 0.00 | 60 | 1006.0 |
| 20260504225058 | 23 | 176 | 11.3 | 16.1 | 0.00 | 0.00 | 0.00 | 60 | 1005.9 |
| 20260504224555 | 23 | 186 | 14.5 | 24.1 | 0.00 | 0.00 | 0.00 | 59 | 1006.0 |
| 20260504224052 | 23 | 186 | 12.9 | 17.7 | 0.00 | 0.00 | 0.00 | 60 | 1005.9 |
| 20260504223549 | 23 | 195 | 16.1 | 27.4 | 0.00 | 0.00 | 0.00 | 58 | 1006.1 |